Location: Claremont
(33.9858°S, 18.4575°E)
Time: 10:54:48
(UTC+00:00)

SL-8 R/B - Pass Details

Date: 03 March 2021
Orbit: 656 x 667 km, 48.4° (Epoch: 21 April)

Event Time Altitude Azimuth Distance (km) Brightness Sun altitude
Rises 17:54:20 0° 335° (NNW) 2,984 7.2 -7.9°
Reaches altitude 10° 17:56:52 10° 345° (NNW) 2,081 6.3 -8.4°
Maximum altitude 18:01:07 31° 47° (NE) 1,157 4.5 -9.2°
Drops below altitude 10° 18:05:24 10° 109° (ESE) 2,105 5.8 -10.1°
Enters shadow 18:06:05 - 113° (ESE) 2,345 6.1 -10.2°
